Location: Cactus School
(34.5700°N, 118.0931°W)
Time: 07:42:34
(UTC-07:00)

Vanguard 1 Rocket - Pass Details

Date: 24 April 2024
Orbit: 650 x 4220 km, 34.3° (Epoch: 22 May)

Event Time Altitude Azimuth Distance (km) Brightness Sun altitude
Rises 23:33:14 0° 279° (W) 3,890 11.0 -38.7°
Reaches altitude 10° 23:35:34 10° 271° (W) 3,213 10.4 -38.9°
Enters shadow 23:38:46 27° 253° (WSW) 2,537 9.6 -39.1°
